This demonstration page uses our WeatherBlox Daily Observations layout. Learn more.

Left ArrowRight Arrow

38.83388, -104.82136

Hourly Observations for January 26, 2021

Temp ( °F °C ) Dew Point ( °F °C ) Humidity (%) Winds ( mph kmh ) Pressure ( in mb ) Visibility ( mi km ) Precip ( " mm )
5:58 am 05:58 Mostly Cloudy with Freezing Fog 15 -9.7 13 -10.4 95 95 SSE 12 19 29.52 1000 1 2 0.00 0.00
7:43 am 07:43 Cloudy with Mist and Fog 14 -10 12 -11 92 92 SSE 9 15 29.54 1001 7 11 0.00 0.00
7:53 am 07:53 Cloudy with Mist and Fog 14 -10 12 -11 92 92 SSE 8 13 29.55 1001 1 2 0.00 0.00
7:58 am 07:58 Cloudy with Mist and Fog 14 -10.1 12 -11 93 93 SSE 9 15 29.55 1001 1 2 0.00 0.00
8:23 am 08:23 Mostly Cloudy with Mist and Fog 14 -10 12 -11 92 92 SSE 9 15 29.57 1001 1 2 0.00 0.00
8:33 am 08:33 Mostly Cloudy with Mist and Fog 14 -10 12 -11 92 92 SSE 9 15 29.57 1001 1 1 0.00 0.00
8:58 am 08:58 Mostly Cloudy with Freezing Fog 14 -10.1 12 -11 93 93 SSE 12 19 29.57 1002 3 5 0.00 0.00
9:16 am 09:16 Cloudy with Freezing Fog 14 -10 12 -11 92 92 SSE 12 19 29.59 1002 3 5 0.00 0.00
9:21 am 09:21 Cloudy with Freezing Fog 14 -10 12 -11 92 92 SSE 14 22 29.59 1002 3 5 0.00 0.00
9:36 am 09:36 Cloudy with Freezing Fog 14 -10 12 -11 92 92 SSE 12 19 29.59 1002 3 5 0.00 0.00
9:46 am 09:46 Cloudy with Freezing Fog 14 -10 12 -11 92 92 SSE 14 22 29.59 1002 3 5 0.00 0.00
10:51 am 10:51 Cloudy with Mist and Fog 14 -10 12 -11 92 92 SSE 10 17 29.60 1002 1 2 0.00 0.00
11:56 am 11:56 Mostly Cloudy with Mist and Fog 13 -10.7 11 -11.8 92 92 SE 10 17 29.58 1002 7 11 0.00 0.00
12:56 pm 12:56 Mostly Cloudy with Mist and Fog 13 -10.3 12 -11.3 92 92 SSE 10 17 29.55 1001 5 8 0.00 0.00
1:26 pm 13:26 Mostly Cloudy with Freezing Fog 12 -11 10 -12 92 92 SE 10 17 29.55 1001 3 5 0.00 0.00
4:56 pm 16:56 Mostly Cloudy with Freezing Fog 11 -11.9 8 -13.1 91 91 SE 5 7 29.64 1004 0 0 0.00 0.00
5:41 pm 17:41 Mostly Cloudy with Mist and Fog 10 -12 9 -13 92 92 SSE 8 13 29.64 1004 5 8 0.00 0.00
5:56 pm 17:56 Mostly Cloudy with Mist and Fog 10 -12.3 8 -13.5 91 91 S 7 11 29.65 1004 5 8 0.00 0.00
6:26 pm 18:26 Mostly Cloudy with Mist and Fog 10 -12 7 -14 85 85 SSE 5 7 29.66 1004 2 3 0.00 0.00
6:41 pm 18:41 Mostly Cloudy with Freezing Fog 9 -13 7 -14 92 92 Calm 29.67 1005 1 1 0.00 0.00
6:56 pm 18:56 Mostly Cloudy with Freezing Fog 9 -12.9 6 -14.2 90 90 Calm 29.67 1005 3 5 0.00 0.00
7:26 pm 19:26 Mostly Cloudy with Mist and Fog 9 -13 5 -15 85 85 Calm 29.70 1006 1 2 0.00 0.00
7:56 pm 19:56 Mostly Cloudy 8 -13.2 6 -14.7 89 89 Calm 29.72 1006 10 16 0.00 0.00
8:56 pm 20:56 Cloudy 10 -12.5 6 -14.4 86 86 N 3 6 29.72 1007 10 16 0.00 0.00
9:56 pm 21:56 Mostly Cloudy 11 -11.5 9 -12.6 92 92 NNW 3 6 29.74 1007 10 16 0.00 0.00
10:56 pm 22:56 Mostly Cloudy 13 -10.7 11 -11.7 92 92 NNW 3 6 29.78 1008 10 16 0.00 0.00
11:56 pm 23:56 Cloudy 15 -9.5 13 -10.4 93 93 Calm 29.79 1009 10 16 0.00 0.00

Powered by AerisWeather